User: anonymous   Login
Location: Unspecified
(0.0000°N, 0.0000°E)
Time: 20:20:46
(UTC+00:00)
Language:

deb r/b Ablestar - Orbit

View from above orbital plane
View from above orbital plane
View from above satellite
View from above satellite

Ground track
Ground track

The orbit data is extracted from the following two-line orbital elements,

1 00335U 61015DM  15028.17970831  .00000635  00000-0  36083-3 0  3908
2 00335 066.8421 294.4053 0043414 354.9979 161.7592 14.15778689738149
Epoch (UTC): 28 January 2015 04:18:46
Eccentricity: 0.0043414
inclination: 66.8421°
perigee height: 808 km
apogee height: 871 km
right ascension of ascending node: 294.4053°
argument of perigee: 354.9979°
revolutions per day: 14.15778689
mean anomaly at epoch: 161.7592°
orbit number at epoch: 73814

The dashed part of the orbit path shows where the satellite is in the earth's shadow,  

DLR